Location: Kampong Paya Jaras
(3.2000°N, 101.5500°E)
Time: 11:17:37
(UTC+00:00)

Daily predictions for brighter satellites

Satellite Brightness Start Highest point End
(mag) Time Altitude Azimuth Time Altitude Azimuth Time Altitude Azimuth
IRS-P3 4.1 12:00:35 10° SSE 12:05:53 79° ENE 12:11:10 10° N
Ariane H10+ 1.8 12:03:13 10° WSW 12:06:02 36° SSE 12:08:38 19° ESE
Cosmos 371 Rocket 3.2 12:03:07 10° N 12:07:50 63° ENE 12:12:33 10° SSE
NOSS 3-3 (C) 3.2 12:03:14 10° SSW 12:08:07 80° ESE 12:12:58 10° NNE
GPS 2-17 Rocket1 4.2 12:06:23 10° SSW 12:09:45 23° SSE 12:11:10 19° SE
SEDSat Delta rocket 4.0 12:03:54 10° WSW 12:10:11 85° NNW 12:16:47 10° NE
Cosmos 1452 Rocket 3.5 12:07:07 10° SSW 12:12:20 89° ESE 12:17:34 10° NNE
Spot 4 Rocket 4.5 12:09:15 12° SE 12:13:36 40° ENE 12:18:21 10° N
Delta 198 4.4 12:09:14 10° WSW 12:15:36 79° NNW 12:21:41 10° ENE
Cosmos 2082 Rocket 2.1 12:11:05 10° S 12:16:45 69° ESE 12:22:24 10° NNE
Sich 1 Rocket 3.9 12:15:43 10° SSE 12:19:48 39° E 12:23:51 10° NNE
PSLV R/B 4.1 12:19:22 26° ESE 12:20:53 35° ENE 12:24:40 10° NNE
Cosmos 1302 Rocket 3.9 12:16:42 10° S 12:21:46 58° ESE 12:26:48 10° NNE
Ariane H10-3 2.1 12:19:48 10° W 12:22:30 63° S 12:23:08 43° ESE
Cosmos 1461 2.7 12:20:54 10° S 12:24:24 46° ESE 12:27:57 10° NE
Cosmos 407 Rocket 3.7 12:19:35 10° NNW 12:24:41 70° WSW 12:29:51 10° S
Ariane 3 Deb 3.7 12:22:44 10° WSW 12:26:48 61° SSE 12:34:20 21° E
Cosmos 2100 Rocket 4.0 12:22:10 10° S 12:28:12 59° E 12:34:18 10° NNE
BLOCK DM-SL R/B 1.2 12:27:48 10° W 12:29:54 71° S 12:30:41 45° ESE
Cosmos 2251 Rocket 3.8 12:25:22 10° N 12:30:27 46° ENE 12:32:30 31° SE
GPS 2-15 Rocket1 4.1 12:26:45 10° W 12:31:19 43° NNW 12:35:00 15° NE
Ariane H10+ 3.3 12:30:10 10° SW 12:30:52 13° SSW 12:30:52 13° SSW
Orbus 7S 3.6 12:30:01 10° WNW 12:32:43 53° WSW 12:32:43 53° WSW
Resurs 01 Rocket 1.5 12:29:45 15° SSE 12:33:21 89° ENE 12:37:41 10° N
CARTOSAT-1 4.2 12:29:36 10° S 12:33:42 54° W 12:37:47 10° NNW
SJ-6B 3.5 12:36:17 32° NE 12:36:17 32° NE 12:38:43 10° N
CZ-2D R/B 3.2 12:33:49 23° S 12:36:06 83° WSW 12:39:53 10° NNW
Okean 2 Rocket 3.3 12:35:23 10° S 12:39:48 71° W 12:44:14 10° N
Aurora 2 Rocket 2.5 12:37:53 10° W 12:40:55 43° SSW 12:41:02 43° SSW
Cosmos 1862 4.0 12:37:45 10° NNW 12:41:08 46° W 12:43:43 16° SSW
SAR-Lupe-1 4.3 12:45:27 44° SSW 12:46:21 64° WSW 12:49:52 10° NNW
GPS 2-12 Rocket1 4.2 12:48:00 10° NW 12:51:45 28° NNE 12:52:06 28° NNE
Cosmos 1697 Rocket 4.3 12:48:52 10° NNE 12:51:07 18° NE 12:51:07 18° NE
SPOT 5 4.3 12:57:20 20° NNE 12:57:20 20° NNE 12:58:55 10° NNE
Cosmos 1455 Rocket 3.9 12:57:27 37° NNE 12:57:27 37° NNE 13:00:13 10° NNE
COSMOS 2406 3.1 12:51:07 10° S 12:56:48 68° ESE 13:02:29 10° NNE
Cosmos 1725 Rocket 3.9 12:54:33 32° SSE 12:57:33 63° E 13:03:44 10° NNE
CSL-04 Rocket 4.5 13:08:16 37° NE 13:08:16 37° NE 13:11:59 10° N
SJ 16-02 3.5 13:08:38 10° NW 13:11:58 23° W 13:14:04 16° SW
Cosmos 2016 Rocket 3.8 13:10:58 57° SSE 13:12:22 80° E 13:18:37 10° N
Delta 202 4.0 13:08:09 10° WNW 13:13:18 54° NNE 13:13:26 53° NNE
ATLAS 3B R/B 4.4 13:09:08 10° NNE 13:12:02 18° NE 13:12:02 18° NE
ASTEX 1 4.0 13:18:00 50° N 13:18:00 50° N 13:21:38 10° N
Centaur D AC-29 3.7 18:40:10 10° WSW 19:52:24 44° NNE 19:55:59 10° NE
Ariane H10+ 4.3 20:13:50 65° WNW 20:16:40 78° N 20:32:14 10° E
USA 59 Rocket 2.9 20:32:20 18° SE 20:34:00 20° ESE 20:37:51 10° ENE
Cosmos 1943 Rocket 2.9 20:43:37 50° ENE 20:43:37 50° ENE 20:48:20 10° NNE
CZ-2C R/B 3.7 20:42:51 10° NE 20:46:13 34° ENE 20:46:13 34° ENE
ARIANE 5 R/B 3.4 20:55:59 45° SE 20:55:59 45° SE 21:07:02 10° E
H-2A R/B 4.5 20:51:46 10° N 20:52:27 15° N 20:52:27 15° N
USA 267 3.2 20:57:51 10° NNE 21:04:16 62° NW 21:04:37 61° WNW
Cosmos 2228 Rocket 3.8 21:11:56 46° N 21:11:56 46° N 21:15:04 10° N
Cosmos 2278 Rocket 2.1 21:10:32 65° S 21:11:22 82° ESE 21:17:02 10° NNE
GPS 2-15 Rocket1 3.6 21:12:36 50° NNE 21:12:46 50° NNE 21:17:11 10° E
USA 281 3.0 21:06:54 10° SSE 21:13:28 77° WSW 21:20:01 10° NNW
Meteor 2-5 Rocket 3.6 21:13:20 56° S 21:14:35 86° E 21:20:05 10° N
Hubble Space Telescope 2.8 21:18:13 17° SE 21:18:13 17° SE 21:20:15 10° ESE
Exosat Rocket 3.7 21:22:39 56° WSW 21:23:25 62° WNW 21:28:28 10° N
PAYLOAD A 3.9 21:19:04 10° NNE 21:24:02 88° WNW 21:25:40 45° SSW
ARIANE 5 R/B 3.4 21:29:05 18° SE 21:29:05 18° SE 21:29:46 10° ESE
OAO 2 Rocket 3.6 21:27:55 45° S 21:28:55 54° SE 21:33:39 10° ENE
Meteor 1-24 Rocket 3.9 21:35:47 42° W 21:36:01 42° W 21:41:06 10° NNW
HETE-2 4.1 21:38:45 71° SSW 21:38:50 72° S 21:42:31 10° E
NOSS 2-1 (D) 4.3 21:36:45 19° SSW 21:41:49 78° ESE 21:46:41 10° NNE
deb Ariane 3.3 21:41:41 52° W 21:42:24 79° N 21:49:32 10° E
USA 238 DEB 3.4 21:43:35 33° SW 21:46:01 55° WNW 21:51:48 10° N
USA 238 3.4 21:43:43 32° SW 21:46:12 56° WNW 21:52:00 10° N
Iridium 82 4.3 21:47:18 25° SSE 21:48:48 63° E 21:51:37 10° N
Timation 2 Rocket 3.8 21:46:04 25° SW 21:49:36 61° WNW 21:55:29 10° N
ARIANE 3 DEB 4.3 21:53:42 21° SSW 21:54:56 24° S 21:58:37 10° ESE
Cosmos 1900 4.4 21:51:15 10° NW 21:55:56 49° WSW 22:00:41 10° S
Cosmos 1867 3.5 21:50:40 10° NNW 21:56:00 63° WSW 22:01:20 10° SSE
Cosmos 1939 Rocket 3.1 21:52:36 10° N 21:56:10 41° WNW 21:57:18 32° WSW
Palapa 6 Rocket 4.3 21:55:00 26° SW 21:56:11 29° SSW 22:00:16 10° SSE
Cosmos 2366 rocket 3.9 21:50:57 10° N 21:57:16 77° W 22:03:36 10° S
Cosmos 468 4.5 21:52:14 10° SSW 21:57:26 88° E 22:02:37 10° NNE
USA 307 2.9 21:55:41 26° WNW 21:57:28 42° WSW 22:01:05 10° SSE
Cosmos 614 Rocket 4.0 21:52:39 10° S 21:57:50 86° ESE 22:03:01 10° NNE
Cosmos 1733 Rocket 3.1 21:55:35 10° NNW 21:59:43 50° W 22:03:52 10° S
IRS-1D 4.3 21:55:51 10° NNE 22:01:01 54° ESE 22:06:08 10° S
Spelda 30 3.3 21:57:08 22° WSW 22:01:12 63° S 22:04:01 10° E
IUS-13 SRM-1 3.0 22:04:18 19° NW 22:05:02 22° NNW 22:07:47 10° NE
NOAA 12 4.0 22:00:35 10° N 22:05:47 79° WNW 22:11:02 10° SSW
SL-12 R/B(2) 3.9 22:00:14 11° SSW 22:07:09 72° WNW 22:14:46 10° NNE
Meteor 2-19 Rocket 4.5 22:01:22 10° S 22:07:32 89° W 22:13:41 10° N
ATLAS 2AS CENTAUR R/B 3.0 22:05:34 10° NW 22:11:56 42° WSW 22:18:29 10° S
IGS 5A 4.4 22:10:50 10° NNE 22:14:36 45° E 22:18:22 10° S
SL-16 R/B 2.8 22:10:18 10° S 22:16:16 47° WSW 22:22:14 10° NNW
Ariane H10 4.3 21:45:05 12° W 22:18:31 58° SSW 22:23:36 10° ESE
Cosmos 2369 Rocket 4.1 22:14:26 10° SSE 22:19:19 30° ESE 22:24:09 10° NE
NOSS 2-1 (E) 4.4 22:14:16 10° SSW 22:21:06 57° WNW 22:25:56 10° N
ASC 2 Rocket 3.8 22:18:22 15° W 22:21:59 52° NNW 22:27:49 10° NE
USA 59 Rocket 1.4 22:17:55 12° SW 22:22:48 30° WNW 22:26:55 10° N
Cosmos 1821 Rocket 3.9 22:17:59 10° N 22:24:04 70° W 22:30:08 10° S
CZ-3 R/B 2.5 22:06:42 10° WNW 22:24:50 82° NNE 22:30:29 10° ESE
Cosmos 1833 Rocket 3.6 22:20:30 10° N 22:25:58 53° ENE 22:31:26 10° SSE
H-2A R/B 3.2 22:25:48 10° N 22:29:31 60° WNW 22:33:15 10° SSW
Cosmos 1869 3.4 22:28:17 10° N 22:31:39 63° E 22:35:01 10° SSE
Ariane 42L R/B 4.0 22:38:54 10° WSW 22:42:54 25° S 22:46:16 10° SE
Cosmos 1656 Rocket 4.0 22:40:49 10° SW 22:45:55 43° WNW 22:50:59 10° N
CZ-4C R/B 3.4 22:40:09 10° NNW 22:49:03 72° WSW 22:58:13 10° SSE
Ariane H10 3.6 23:03:02 10° W 23:23:50 75° N 23:27:43 10° E
